Regional Weather Roundup
Issued by NWS Albany, NY

Home | Current Version | Previous Version | Text Only | Print | Product List | Glossary On
Versions: 1 2 3 4 5 6 7 8 9 10 11 12 13 14 15 16 17 18 19 20 21 22 23 24 25 26 27 28 29 30 31 32 33 34 35 36 37 38 39 40 41 42 43 44 45 46 47 48 49 50
049
ASUS41 KALY 272110
RWRALY

NEW YORK STATE HOURLY WEATHER ROUNDUP
NATIONAL WEATHER SERVICE ALBANY NY
500 PM EDT SAT MAY 27 2017

NOTE: "FAIR" INDICATES FEW OR NO CLOUDS BELOW 12,000 FEET WITH NO
SIGNIFICANT WEATHER AND/OR NO OBSTRUCTIONS TO VISIBILITY.

NYZ032-033-038>043-046>054-057>066-NYZ062>081-082-084-272200-
EAST


CITY           SKY/WX    TMP DP  RH WIND       PRES   REMARKS
ALBANY         CLOUDY    71  49  45 VRB3      29.87S
GLENS FALLS    NOT AVBL
POUGHKEEPSIE   CLOUDY    70  53  54 CALM      29.86R
NEWBURGH       CLOUDY    68  57  68 CALM      29.89R
MONTGOMERY     CLOUDY    69  57  65 N9        29.87R
WHITE PLAINS   CLOUDY    67  54  63 SE5       29.87S
ISLIP          CLOUDY    62  55  77 SE9       29.89S
NEW YORK CITY  CLOUDY    70  55  59 S9        29.86S
CENTRAL PARK   CLOUDY    71  55  56 E3        29.89S
$$

NYZ005>009-017-018-044>046-055-056-272200-
CENTRAL


CITY           SKY/WX    TMP DP  RH WIND       PRES   REMARKS
FULTON         MOSUNNY   68  57  68 W6        29.88S
SYRACUSE       LGT RAIN  64  58  80 SW6       29.88R
ROME           CLOUDY    68  53  58 NW8       29.87S
ELMIRA         CLOUDY    68  53  58 NE3       29.88F
BINGHAMTON     CLOUDY    63  52  67 VRB5      29.91S
MONTICELLO     CLOUDY    64  54  68 W8        29.91S
$$

NYZ026>034-041>043-087-272200-
NORTH


CITY           SKY/WX    TMP DP  RH WIND       PRES   REMARKS
WATERTOWN      PTSUNNY   67  52  58 W8        29.88S HAZE
FORT DRUM      NOT AVBL
OGDENSBURG     FAIR      74  48  39 CALM      29.86F
MASSENA        SUNNY     73  50  44 VRB6      29.86F
SARANAC LAKE   CLOUDY    60  49  66 W5        29.89R
PLATTSBURGH    PTSUNNY   68  48  48 SE8       29.86S
$$

NYZ001>004-010>016-019>021-085-272200-
WEST


CITY           SKY/WX    TMP DP  RH WIND       PRES   REMARKS
NIAGARA FALLS  CLOUDY    68  54  60 CALM      29.89S
BUFFALO        CLOUDY    66  52  60 NW3       29.90R
DUNKIRK        SUNNY     64  52  64 N8        29.91R
JAMESTOWN      CLOUDY    64  52  63 NW7       29.91S
WELLSVILLE     PTSUNNY   67  50  54 N6        29.91F
ROCHESTER      PTSUNNY   63  55  75 CALM      29.91S
PENN YAN       CLOUDY    64  52  64 CALM      29.90F
$$

             KEY
       WCI = WIND CHILL INDEX
       VSB = VISIBILITY
       HX  = HEAT INDEX
$$




USA.gov is the U.S. government's official web portal to all federal, state and local government web resources and services.